カタリナ彗星

C/2013 V4 ( Catalina )

English version
Home page
Updated on January 17, 2017

---------------------------------------------------------------------

・ プロフィール

発見日 2013年11月9日
発見光度 17.7等
発見者 R. E. Hill (Catalina Sky Survey)

・ 写真集

・ 軌道要素

Epoch 2015 Oct. 25.0 TT = JDT 2457320.5
T 2015 Oct. 7.60566 TT                                  MPCW
q   5.1853894            (2000.0)            P               Q
z  -0.0004940      Peri.   40.44982     +0.22785448     -0.60308259
 +/-0.0000003      Node    55.62128     +0.46388659     -0.62303450
e   1.0025616      Incl.   67.85534     +0.85609086     +0.49811585
From 1962 observations 2013 Oct. 23-2016 Nov. 4, mean residual 0".5.

・ 星図

・ 光度変化

        m1 = 5.0 + 5 logΔ + 10.0 log r

---------------------------------------------------------------------

軌道要素はM.P.E.C. 2016-V116に掲載されたものです。
星図はステラナビゲータ Ver.8 (アストロアーツ) で作成したものです。
光度グラフはComet for Windowsで作成したものです。

---------------------------------------------------------------------

Copyright(C) Seiichi Yoshida (comet@aerith.net). All rights reserved.